Flag for U.S.A. Weather past 2 weeks in Orange, California, U.S.A.

Now
69 °F

Passing clouds.


Feels Like: 69 °F
Forecast: 67 / 83 °F
Wind: 3 mph from Southwest

Location: John Wayne Airport-Orange County Airport

Current Time: Jul 1, 2015 at 10:57:16 PM

Latest Report: Jul 1, 2015 at 9:53 PM


Visibility: 9 mi

Pressure: 29.94 "Hg

Humidity: 84%

Dew point: 64 °F

Location of OrangeLocation

Historic Weather in Orange — Graph

°F

Orange temperature yesterday

Maximum temperature yesterday: 86 °F (at 7:53 PM)
Minimum temperature yesterday: 65 °F (at 6:53 AM)
Average temperature yesterday: 73 °F

Past Weeks' High & Low Weather Summary

 TemperatureHumidityPressure
High86 °F (Jun 30, 7:53 PM)97% (Jun 19, 2:53 AM)30.02 "Hg (Jun 19, 2:53 AM)
Low61 °F (Jun 19, 1:53 AM)36% (Jun 30, 7:53 PM)29.78 "Hg (Jun 30, 7:53 PM)
Average70 °F74%29.90 "Hg
* Reported Jun 17 3:53 AM — Jul 1 9:53 PM, Orange, Weather by CustomWeather, © 2015

Note: Actual official high and low records may vary slightly from our data, if they occured in-between our weather recording intervals... More about our weather records

Advertising

Orange weather history for previous 24 hours

 ConditionsComfort  
Time TempWeatherWind HumidityBarometerVisibility
9:53 PM
Wed, Jul 1
69 °FPassing clouds.3 mph84%29.94 "Hg9 mi
8:53 PM71 °FPartly sunny.3 mph78%29.92 "Hg9 mi
7:53 PM71 °FBroken clouds.6 mph81%29.91 "Hg9 mi
6:53 PM71 °FPartly sunny.10 mph81%29.90 "Hg10 mi
5:53 PM75 °FSunny.12 mph66%29.88 "Hg10 mi
4:53 PM76 °FBroken clouds.8 mph62%29.88 "Hg10 mi
3:53 PM77 °FPartly sunny.10 mph62%29.88 "Hg10 mi
2:53 PM77 °FPartly sunny.7 mph64%29.89 "Hg9 mi
1:53 PM75 °FPartly sunny.10 mph69%29.90 "Hg10 mi
12:53 PM75 °FPartly sunny.9 mph69%29.89 "Hg9 mi
11:53 AM81 °FMostly cloudy.6 mph58%29.90 "Hg10 mi
10:53 AM78 °FPartly sunny.3 mph64%29.91 "Hg10 mi
9:53 AM75 °FCloudy.7 mph74%29.91 "Hg10 mi
8:53 AM74 °FPartly sunny.7 mph76%29.92 "Hg9 mi
7:53 AM73 °FMostly cloudy.No wind76%29.91 "Hg9 mi
6:53 AM71 °FMostly cloudy.No wind81%29.88 "Hg10 mi
5:53 AM71 °FClear.No wind76%29.89 "Hg10 mi
4:53 AM69 °FClear.No wind84%29.88 "Hg10 mi
3:53 AM70 °FClear.No wind79%29.88 "Hg10 mi
2:53 AM70 °FClear.6 mph79%29.88 "Hg10 mi
1:53 AM72 °FClear.No wind71%29.85 "Hg10 mi
12:53 AM71 °FClear.No wind73%29.84 "Hg10 mi
11:53 PM
Tue, Jun 30
70 °FClear.3 mph76%29.84 "Hg10 mi
10:53 PM72 °FClear.3 mph68%29.85 "Hg10 mi
Weather by CustomWeather, © 2015

See weather overviewHow to use our weather pages